Dewpoint
62 63 63 63 65 67 69 69 72 73 71 71 72 71 71 71 71 71 71 71 70 70 71 71 71 72 71 71 72 72 71 70 69 69 70 71 71 72 72 72 72 72 71
60 62 60 61 62 64 66 68 70 71 73 71 71 71 71 71 71 71 71 71 70 70 70 70 70 70 71 71 71 72 72 73 71 70 70 70 71 73 72 72 71 69 71
60 59 60 59 58 60 62 65 68 69 70 72 73 71 72 72 71 71 71 71 71 70 70 70 70 71 70 70 71 71 70 72 72 70 69 71 71 71 71 71 71 72 70
58 59 59 59 59 60 61 64 66 66 68 69 70 72 73 72 72 72 71 71 71 71 71 71 71 71 70 70 70 71 71 72 72 71 70 70 70 71 70 69 69 69 69
54 55 57 58 60 60 61 62 63 65 66 68 66 67 70 73 73 72 72 71 71 70 71 71 72 71 69 70 70 72 72 72 72 71 71 70 69 69 69 70 69 69 69
55 55 56 57 58 59 60 62 63 64 64 61 61 61 64 69 68 67 69 72 72 70 70 71 72 70 69 67 67 67 71 71 71 70 70 70 70 70 71 70 69 68 66
51 53 55 57 58 59 60 62 61 61 60 59 58 59 59 61 64 65 67 70 71 71 71 71 71 72 69 71 68 66 66 66 68 71 70 70 70 71 72 70 69 69 68
48 49 50 52 54 57 57 56 56 57 57 57 57 58 58 59 61 62 64 70 71 71 71 67 67 66 67 71 72 71 70 70 69 69 71 71 72 72 73 72 71 70 69
47 47 48 50 50 51 51 52 52 54 55 56 56 56 56 58 59 60 63 70 70 70 70 68 66 66 64 65 71 71 71 71 67 64 65 65 64 63 68 70 69 68 67
47 47 48 49 49 49 50 50 51 52 53 54 55 56 56 58 59 58 61 70 68 68 68 68 64 66 62 60 67 69 69 69 71 71 69 66 64 66 62 70 71 68 68
47 48 49 49 49 50 49 49 50 51 53 54 54 55 56 57 59 58 58 67 69 68 68 67 67 60 58 57 59 69 69 69 68 69 69 69 69 70 70 67 70 68 68
48 49 49 49 49 49 49 48 48 49 50 51 52 52 54 58 58 59 57 58 65 67 67 68 67 58 56 55 56 59 58 59 65 66 66 67 68 69 70 69 68 69 70
48 49 50 49 49 50 49 49 49 49 50 49 51 51 54 60 65 59 58 56 58 64 68 65 61 55 53 55 55 55 55 61 63 64 65 66 67 69 69 70 70 69 69
50 50 50 50 50 50 50 50 50 50 50 51 51 51 56 62 66 69 62 59 57 61 61 65 63 61 59 60 61 60 62 62 64 64 65 66 67 67 67 68 67 67 66
50 50 51 50 51 52 53 53 52 52 52 52 52 54 59 62 65 62 62 63 62 61 62 64 62 63 63 64 64 65 65 65 65 65 66 66 66 66 66 66 66 67 66
50 51 51 51 52 53 54 55 53 51 50 48 48 51 57 54 52 50 49 51 52 53 62 62 62 63 62 63 63 64 65 64 64 64 64 64 64 64 65 64 64 65 65
51 51 51 51 51 51 52 53 55 52 48 45 44 44 45 48 49 47 50 51 51 55 62 62 62 63 63 64 63 63 60 60 60 60 61 60 60 60 59 60 60 59 58
51 51 51 51 51 51 52 54 54 55 56 55 49 48 47 48 48 49 51 53 60 60 62 63 62 62 62 61 61 60 59 59 59 59 60 59 59 58 57 57 57 57 58
52 52 51 52 51 51 52 52 53 53 54 55 56 54 53 49 50 50 51 61 60 59 59 58 60 61 61 59 58 59 60 60 58 58 58 59 58 57 57 57 57 52 54
51 51 51 52 51 51 51 51 50 51 53 53 52 53 53 54 54 54 54 53 54 56 60 61 59 59 59 59 58 58 58 59 58 59 58 58 58 57 56 56 57 56 56
49 48 49 51 52 52 52 51 51 52 51 51 51 49 46 53 53 53 53 53 53 54 57 59 59 59 58 57 57 57 55 54 54 53 52 53 53 53 52 51 53 52 54
49 48 48 46 46 50 51 52 52 52 52 51 51 50 46 51 50 50 51 51 50 50 53 55 55 56 57 57 58 58 57 55 54 54 53 51 51 50 48 47 47 48 48
44 45 44 43 44 45 46 45 45 44 48 49 48 49 52 51 51 51 50 47 47 47 48 50 48 45 45 46 49 53 54 54 53 53 52 50 50 49 47 46 46 46 46
43 44 44 43 42 43 43 44 44 43 45 45 45 45 45 46 46 46 46 46 45 44 43 41 40 40 41 41 41 41 42 47 50 50 51 50 49 47 48 47 47 45 44
42 45 44 43 42 43 43 43 44 43 44 45 45 45 45 46 45 44 44 44 42 41 40 39 38 38 39 39 39 38 34 33 42 40 44 45 45 48 51 51 51 50 49
41 44 45 44 43 42 42 43 43 43 43 43 44 44 44 43 44 45 44 42 41 39 39 38 38 39 38 38 37 33 32 32 36 35 40 40 40 40 42 44 45 48 49
Lifted_Index
3 3 3 3 3 1 -0 -2 -3 -5 -5 -5 -5 -4 -4 -3 -3 -3 -3 -3 -3 -3 -2 -2 -2 -2 -2 -3 -3 -3 -3 -4 -4 -4 -4 -4 -3 -3 -3 -3 -2 -2 -2
4 4 4 4 4 3 2 0 -1 -3 -4 -5 -5 -5 -4 -4 -4 -4 -3 -3 -3 -3 -3 -2 -2 -2 -2 -2 -3 -3 -3 -3 -3 -4 -4 -4 -3 -3 -3 -3 -2 -2 -2
4 4 4 5 5 5 4 3 1 -1 -2 -4 -5 -5 -5 -5 -4 -4 -4 -3 -3 -3 -3 -3 -3 -3 -2 -2 -2 -2 -3 -3 -3 -3 -3 -3 -3 -3 -3 -3 -3 -2 -2
5 5 5 4 5 5 5 4 3 1 -0 -2 -3 -4 -5 -5 -5 -4 -4 -4 -4 -3 -3 -3 -3 -3 -3 -3 -2 -2 -2 -2 -2 -2 -3 -3 -3 -3 -2 -2 -2 -2 -2
6 6 5 5 4 4 4 4 3 2 2 1 1 0 -2 -4 -5 -5 -5 -4 -4 -4 -3 -3 -4 -4 -3 -3 -3 -3 -2 -2 -2 -2 -2 -3 -3 -3 -3 -2 -2 -2 -2
7 7 6 5 4 4 4 3 3 3 3 4 5 4 2 -0 -2 -4 -5 -5 -5 -4 -3 -3 -3 -4 -4 -3 -3 -3 -3 -2 -2 -2 -2 -2 -3 -3 -3 -2 -2 -2 -2
9 8 7 6 5 5 4 4 4 4 5 6 7 7 6 4 1 -1 -3 -4 -5 -4 -3 -3 -2 -2 -3 -3 -3 -3 -3 -3 -2 -2 -2 -3 -3 -3 -3 -2 -2 -2 -2
10 10 9 8 7 6 6 5 5 5 6 6 7 8 8 6 4 1 -1 -3 -4 -4 -4 -3 -1 -0 -1 -2 -4 -4 -4 -3 -3 -3 -3 -3 -3 -3 -2 -2 -2 -2 -2
11 11 10 10 9 8 7 7 6 6 7 8 8 9 9 8 5 2 -0 -3 -4 -4 -4 -3 -1 0 0 -1 -3 -4 -4 -3 -3 -2 -2 -2 -2 -2 -2 -2 -2 -2 -2
12 12 11 11 10 9 8 8 8 7 8 8 9 10 9 8 6 4 1 -2 -4 -5 -5 -4 -2 -1 -0 -0 -1 -2 -2 -2 -2 -2 -1 -1 -1 -1 -1 -1 -2 -2 -1
12 12 11 11 11 10 9 9 9 8 8 9 9 10 10 8 6 4 1 -1 -4 -4 -5 -4 -3 -2 -1 0 0 -0 -1 -0 -0 0 0 0 -0 -0 -0 -0 -1 -1 -1
10 10 10 10 10 10 9 9 9 8 8 8 9 9 9 7 5 2 0 -2 -3 -4 -4 -4 -3 -2 -0 0 0 0 0 1 1 2 2 1 0 -0 -0 0 0 0 -0
9 9 9 9 9 9 8 8 8 8 7 7 7 8 7 5 2 -0 -2 -3 -4 -4 -4 -4 -3 -1 -1 -0 -1 -0 -0 1 1 1 1 1 0 -0 -0 1 1 0 0
9 9 8 8 8 7 6 6 5 6 6 6 6 6 5 2 -1 -2 -3 -4 -4 -4 -4 -3 -2 -1 -1 -1 -1 -1 -1 -0 0 0 0 0 -0 -0 0 0 0 -0 -0
9 8 8 7 6 5 3 2 3 3 4 5 5 4 2 -0 -2 -3 -4 -4 -4 -4 -4 -3 -2 -2 -2 -2 -1 -1 -1 -0 0 0 1 1 1 0 0 0 -0 -0 -0
8 8 7 7 5 3 1 0 0 1 1 2 2 1 -0 -1 -2 -3 -4 -4 -4 -4 -3 -3 -2 -2 -2 -1 -1 -1 -0 0 1 1 1 2 2 1 1 1 1 0 0
7 7 7 6 5 3 1 -0 -1 -1 -1 -1 -1 -1 -2 -2 -2 -3 -4 -4 -3 -3 -3 -2 -2 -1 -1 -1 -0 -0 0 1 2 2 2 3 3 2 2 2 1 1 1
6 6 7 6 5 4 2 0 -1 -2 -2 -2 -2 -3 -3 -3 -3 -3 -3 -3 -3 -2 -2 -1 -0 -0 0 1 1 1 1 2 4 4 4 4 4 4 4 3 3 2 2
6 6 6 6 6 5 4 2 1 0 -0 -1 -1 -1 -1 -2 -2 -2 -2 -1 -1 -1 -0 0 1 1 2 2 3 3 3 3 4 5 6 6 6 5 5 5 5 4 4
5 5 6 6 6 6 6 5 4 3 3 3 3 3 3 2 1 0 1 1 1 1 1 2 2 2 3 3 4 4 4 4 5 5 6 7 7 7 7 6 6 6 6
5 5 5 6 6 6 7 6 6 6 6 6 7 7 6 5 4 4 4 4 4 4 3 3 3 4 4 4 4 5 5 5 5 6 6 7 7 7 8 7 7 7 6
4 4 5 5 6 6 7 7 7 7 8 8 8 8 8 7 7 7 7 7 7 7 6 6 5 5 5 5 5 5 5 5 5 5 6 6 7 7 8 8 8 7 7
4 4 5 5 5 6 6 7 7 7 8 8 8 8 8 8 8 8 9 9 9 8 8 7 6 6 6 6 6 5 5 5 5 5 5 5 6 6 7 7 7 7 7
4 4 4 5 5 6 6 6 6 6 7 7 8 8 8 8 8 8 8 8 8 8 8 8 7 7 7 7 7 7 7 7 7 6 6 6 6 6 6 6 6 6 6
4 4 4 4 5 5 6 6 6 6 6 6 7 7 7 7 7 7 7 7 7 7 7 7 7 7 7 7 7 7 7 7 7 7 6 6 6 5 5 5 5 5 5
4 4 4 4 5 5 5 5 6 6 6 6 6 6 6 6 6 6 7 7 7 7 7 7 6 6 6 6 6 6 6 7 7 7 6 6 6 6 6 6 6 6 6